CYGFM07

Last updated on Sat Aug 15 2026 00:02:40 GMT+0000 (Coordinated Universal Time)

1 41890U 16078G 26226.32386222 .00021260 00000+0 22541-3 0 9997 2 41890 34.9430 201.6545 0003793 8.5633 351.5157 15.63096899538095
UTC large
Height (km)
Speed (km/s)
/
Latitude / Longitude
Inclination (degrees)
Orbital Period (minutes)
Azimuth
Elevation
Range (km)
Doppler Factor

Next 0 passes for location: London (51.5072 / 0.1276)

No passes found over London.
CYGFM07